McConnell AFB, KS

3:48 AM CST on December 08, 2016 (GMT -0600)
McConnell Air Force Base

Weather History for KIAB - January, 2014

Change the Weather History Date:

Wednesday, January 15, 2014

  Actual Average Record
Temperature  
Mean Temperature 36 °F -  
Max Temperature 48 °F 42 °F 66 °F (2006)
Min Temperature 24 °F 23 °F 6 °F (2009)
Degree Days  
Heating Degree Days 29    
Moisture  
Dew Point 23 °F    
Average Humidity 62    
Maximum Humidity 99    
Minimum Humidity 34    
Precipitation  
Precipitation 0.00 in - - ()
Sea Level Pressure  
Sea Level Pressure 30.16 in    
Wind  
Wind Speed 8 mph (WSW)    
Max Wind Speed 16 mph    
Max Gust Speed -    
Visibility 10 miles    
Events      
Averages and records for this station are not official NWS values.
T = Trace of Precipitation, MM = Missing Value Source: NWS Daily Summary

Daily Weather History Graph

Daily Weather History Graph

Search for Another Location

Airport or City:

Trip Planner

Search our weather history database for the weather conditions in past years. The results will help you decide how hot, cold, wet, or windy it might be!

Date:

Astronomy

Jan. 15, 2014 Rise Set
Actual Time 7:42 AM CST 5:34 PM CST
Civil Twilight 7:14 AM CST 6:03 PM CST
Nautical Twilight 6:42 AM CST 6:35 PM CST
Astronomical Twilight 6:10 AM CST 7:06 PM CST
Moon 5:32 PM CST (1/15) 7:00 AM CST (1/15)
Length of Visible Light 10h 48m
Length of Day
9h 51m
Full, 100% of the Moon is Illuminated
Jan 15
Full
Jan 15
Full
Jan 23
Last Quarter
Jan 30
New
Feb 6
First Quarter

Hourly Weather History & Observations

Time (CST) Temp. Windchill Dew Point Humidity Pressure Visibility Wind Dir Wind Speed Gust Speed Precip Events Conditions
12:58 AM 31.8 °F 23.9 °F 18.5 °F 58% 30.35 in 10.0 mi North 9.2 mph - N/A   Partly Cloudy
1:58 AM 29.5 °F 24.5 °F 18.7 °F 64% 30.34 in 10.0 mi North 4.6 mph - N/A   Clear
2:58 AM 28.8 °F 22.6 °F 19.9 °F 70% 30.34 in 10.0 mi West 5.8 mph - N/A   Clear
3:58 AM 27.9 °F - 22.8 °F 81% 30.33 in 10.0 mi WSW 2.3 mph - N/A   Clear
4:58 AM 26.1 °F 21.9 °F 23.7 °F 91% 30.32 in 10.0 mi West 3.5 mph - N/A   Clear
5:58 AM 25.3 °F 18.5 °F 25.0 °F 99% 30.32 in 10.0 mi West 5.8 mph - N/A   Clear
6:58 AM 24.6 °F 17.7 °F 24.4 °F 99% 30.32 in 10.0 mi West 5.8 mph - N/A   Clear
7:58 AM 24.4 °F 17.5 °F 24.3 °F 99% 30.32 in 10.0 mi West 5.8 mph - N/A   Clear
8:58 AM 28.8 °F 21.7 °F 27.1 °F 94% 30.30 in 10.0 mi West 6.9 mph - N/A   Clear
9:58 AM 34.5 °F 30.4 °F 25.5 °F 70% 30.30 in 10.0 mi WNW 4.6 mph - N/A   Partly Cloudy
10:58 AM 37.9 °F 33.5 °F 21.6 °F 52% 30.27 in 10.0 mi WNW 5.8 mph - N/A   Clear
11:58 AM 41.7 °F 38.8 °F 20.7 °F 43% 30.23 in 10.0 mi Variable 4.6 mph - N/A   Clear
12:58 PM 44.2 °F 39.7 °F 20.7 °F 39% 30.17 in 10.0 mi West 8.1 mph - N/A   Clear
1:58 PM 47.3 °F - 20.3 °F 34% 30.12 in 10.0 mi SW 9.2 mph - N/A   Clear
2:58 PM 48.4 °F - 22.1 °F 36% 30.08 in 10.0 mi SSW 12.7 mph - N/A   Clear
3:58 PM 47.3 °F - 22.5 °F 38% 30.05 in 10.0 mi South 16.1 mph - N/A   Clear
4:58 PM 45.9 °F 40.4 °F 23.5 °F 41% 30.04 in 10.0 mi South 11.5 mph - N/A   Clear
5:58 PM 40.3 °F 33.9 °F 24.3 °F 53% 30.02 in 10.0 mi South 10.4 mph - N/A   Clear
6:58 PM 41.0 °F 33.5 °F 23.9 °F 51% 29.99 in 10.0 mi South 13.8 mph - N/A   Clear
7:58 PM 41.2 °F 34.1 °F 25.0 °F 53% 29.97 in 10.0 mi South 12.7 mph - N/A   Scattered Clouds
8:58 PM 40.8 °F 33.7 °F 25.5 °F 55% 29.94 in 10.0 mi South 12.7 mph - N/A   Mostly Cloudy
9:58 PM 40.1 °F 33.2 °F 25.9 °F 57% 29.91 in 10.0 mi South 11.5 mph - N/A   Partly Cloudy
10:58 PM 40.6 °F 33.8 °F 26.1 °F 56% 29.89 in 10.0 mi South 11.5 mph - N/A   Clear
11:58 PM 40.3 °F 35.5 °F 26.4 °F 58% 29.85 in 10.0 mi SW 6.9 mph - N/A   Clear